SCP
0 0 0 0 0 0 0 0 0 0 0 0 0 0 0 0 0 0 0 0 0 -0 -0 0 0 0 0 0 0 0 0 0 0 0 0 0 0 0 0 0 0 0 0 0 0 0 0 0 0 0 0 0 0 0
0 0 0 0 0 0 0 0 0 0 0 0 0 0 0 0 0 0 0 0 0 0 -0 -0 0 0 0 0 0 0 0 0 0 0 0 0 0 0 0 0 0 0 0 0 0 0 0 0 0 0 0 0 0 0
0 0 0 0 0 0 0 0 0 0 0 0 0 0 0 0 0 0 0 0 0 0 0 -0 -0 -0 0 0 0 0 0 0 0 0 0 0 0 0 0 0 0 0 0 0 0 0 0 0 0 0 0 0 0 0
0 0 0 0 0 0 0 0 0 0 0 0 0 0 0 0 0 0 0 0 0 0 0 0 0 0 0 0 0 0 0 0 0 0 0 0 0 0 0 0 0 0 0 0 0 0 0 0 0 0 0 0 0 0
0 0 0 0 0 0 0 0 0 0 0 0 0 0 0 0 0 0 0 0 0 0 0 0 0 0 0 0 0 0 0 0 0 0 0 0 0 0 0 0 0 0 0 0 0 0 0 0 0 0 0 0 0 0
0 0 0 0 0 0 0 0 0 0 0 0 0 0 0 0 0 0 0 0 0 0 0 0 0 0 0 0 0 0 0 0 0 0 0 0 0 0 0 0 0 0 0 0 0 0 0 0 0 0 0 0 0 0
0 0 0 0 0 0 0 0 0 0 0 0 0 0 0 0 0 0 0 0 0 0 0 0 0 0 0 0 0 0 0 0 0 0 0 0 0 0 0 0 0 0 0 0 0 0 0 0 0 0 0 0 0 0
0 0 0 0 0 0 0 0 0 0 0 0 0 0 0 0 0 0 0 0 0 0 0 0 0 0 0 0 0 0 0 0 0 0 0 0 0 0 0 0 0 0 0 0 0 0 0 0 0 0 0 0 0 0
0 0 0 0 0 0 0 0 0 0 0 0 0 0 0 0 0 0 0 0 0 0 0 0 0 0 0 0 0 0 0 0 0 0 0 0 0 0 0 0 0 0 0 0 0 0 0 0 0 0 0 0 0 0
0 0 0 0 0 0 0 0 0 0 0 0 0 0 0 0 0 0 0 0 0 0 0 0 0 0 0 0 0 0 0 0 0 0 0 0 0 0 0 0 0 0 0 0 0 0 0 0 0 0 0 0 0 0
0 0 0 0 0 0 0 0 0 0 0 0 0 0 0 0 0 0 0 0 0 0 0 0 0 0 0 0 0 0 0 0 0 0 0 0 0 0 0 0 0 0 0 0 0 0 0 0 0 0 0 0 0 0
0 0 0 0 0 0 0 0 0 0 0 0 0 0 0 0 0 0 0 0 0 0 0 0 0 0 0 0 0 0 0 0 0 0 0 0 0 0 0 0 0 0 0 0 0 0 0 0 0 0 0 0 0 0
0 0 0 0 0 0 0 0 0 0 0 0 0 0 0 0 0 0 0 0 0 0 0 0 0 0 0 0 0 0 0 0 0 0 0 0 0 0 0 0 0 0 0 0 0 0 0 0 0 0 0 0 0 0
0 0 0 0 0 0 0 0 0 0 0 0 0 0 0 0 0 0 0 0 0 0 0 0 0 0 0 0 0 0 0 0 0 0 0 0 0 0 0 0 0 0 0 0 0 0 0 0 0 0 0 0 0 0
0 0 0 0 0 0 0 0 0 0 0 0 0 0 0 0 0 0 0 0 0 0 0 0 0 0 0 0 0 0 0 0 0 0 0 0 0 0 0 0 0 0 0 0 0 0 0 0 0 0 0 0 0 0
0 0 0 0 0 0 0 0 0 0 0 0 0 0 0 0 0 0 0 0 0 0 0 0 0 0 0 0 0 0 0 0 0 0 0 0 0 0 0 0 0 0 0 0 0 0 0 0 0 0 0 0 0 0
0 0 0 0 0 0 0 0 0 0 0 0 0 0 0 0 0 0 0 0 0 0 0 0 0 0 0 0 0 0 0 0 0 0 0 0 0 0 0 0 0 0 0 0 0 0 0 0 0 0 0 0 0 0
0 0 0 -0 0 0 0 0 0 0 0 0 0 0 0 0 0 0 0 0 0 0 0 0 0 0 0 0 0 0 0 0 0 0 0 0 0 0 0 0 0 0 0 0 0 0 0 0 0 0 0 0 0 0
0 0 0 -0 0 0 0 0 0 0 0 0 0 0 0 0 0 0 0 0 0 0 0 0 0 0 0 0 0 0 0 0 0 0 0 0 0 0 0 0 0 0 0 0 0 0 0 0 0 0 0 0 0 0
0 0 0 0 0 0 0 0 0 0 0 0 0 0 0 0 0 0 0 0 0 0 0 0 0 0 0 0 0 0 0 0 0 0 0 0 0 0 0 0 0 0 0 0 0 0 0 0 0 0 0 0 0 0
0 -0 0 0 0 0 0 0 0 0 0 0 0 0 0 0 0 0 0 0 0 0 0 0 0 0 0 0 0 0 0 0 0 0 0 0 0 0 0 0 0 0 0 0 0 0 0 0 0 0 0 0 0 0
0 0 0 0 0 0 0 0 0 0 0 0 0 0 0 0 0 0 0 0 0 0 0 0 0 0 0 0 0 0 0 0 0 0 0 0 0 0 0 0 0 0 0 0 0 0 0 0 0 0 0 0 0 0
0 0 0 0 0 0 0 0 0 0 0 0 0 0 0 0 0 0 0 0 0 0 0 0 0 0 0 0 0 0 0 0 0 0 0 0 0 0 0 0 0 0 0 0 0 0 0 0 0 0 0 0 0 0
0 0 0 0 0 0 0 0 0 0 0 0 0 0 0 0 0 0 0 0 0 0 0 0 0 0 0 0 0 0 0 0 0 0 0 0 0 0 0 0 0 0 0 0 0 0 0 0 0 0 0 0 0 0
0 0 0 0 0 0 0 0 0 0 0 0 0 0 0 0 0 0 0 0 0 0 0 0 0 0 0 0 0 0 0 0 0 0 0 0 0 0 0 0 0 0 0 0 0 0 0 0 0 0 0 0 0 0
0 0 0 0 0 0 0 0 0 0 0 0 0 0 0 0 0 0 0 0 0 0 0 0 0 0 0 0 0 0 0 0 0 0 0 0 0 0 0 0 0 0 0 0 0 0 0 0 0 0 0 0 0 0
0 0 0 0 0 0 0 0 0 0 0 0 0 0 0 0 0 0 0 0 0 0 0 0 0 0 0 0 0 0 0 0 0 0 0 0 0 0 0 0 0 0 0 0 0 0 0 0 0 0 0 0 0 0
0 0 0 0 0 0 0 0 0 0 0 0 0 0 0 0 0 0 0 0 0 0 0 0 0 0 0 0 0 0 0 0 0 0 0 0 0 0 0 0 0 0 0 0 0 0 0 0 0 0 0 0 0 0
0 0 0 0 0 0 0 0 0 0 0 0 0 0 0 0 0 0 0 0 0 0 0 0 0 0 0 0 0 0 0 0 0 0 0 0 0 0 0 0 0 0 0 0 0 0 0 0 0 0 0 0 0 0
0 0 0 0 0 0 0 0 0 0 0 0 0 0 0 0 0 0 0 0 0 0 0 0 0 0 0 0 0 0 0 0 0 0 0 0 0 0 0 0 0 0 0 0 0 0 0 0 0 0 0 0 0 0
0 0 0 0 0 0 0 0 0 0 0 0 0 0 0 0 0 0 0 0 0 0 0 0 0 0 0 0 0 0 0 0 0 0 0 0 0 0 0 0 0 0 0 0 0 0 0 0 0 0 0 0 0 0
0 0 0 0 0 0 0 0 0 0 0 0 0 0 0 0 0 0 0 0 0 0 0 0 0 0 0 0 0 0 0 0 0 0 0 0 0 0 0 0 0 0 0 0 0 0 0 0 0 0 0 0 0 0
0 0 0 0 0 0 0 0 0 0 0 0 0 0 0 0 0 0 0 0 0 0 0 0 0 0 0 0 0 0 0 0 0 0 0 0 0 0 0 0 0 0 0 0 0 0 0 0 0 0 0 0 0 0
Wind_Speed_500mb
30 34 35 38 35 36 38 37 30 20 20 25 27 25 18 16 14 15 17 14 11 11 24 24 22 19 13 10 6 3 6 4 3 3 6 5 5 7 4 8 8 11 9 8 5 7 15 12 7 10 10 5 12 20
41 32 31 35 37 36 37 36 33 26 20 22 25 26 21 17 15 15 17 18 19 18 20 37 36 33 37 32 15 12 5 4 8 6 2 3 6 3 6 8 4 7 10 6 15 11 9 21 24 22 20 18 16 22
54 46 36 33 38 41 41 36 34 30 24 22 24 24 24 19 16 15 16 19 20 20 32 28 23 31 42 37 35 12 8 10 9 9 9 2 10 7 7 11 5 9 14 9 3 9 16 29 41 53 56 49 36 29
60 57 48 40 39 46 45 40 35 30 27 26 26 26 24 23 20 18 17 15 15 9 8 10 14 21 21 30 36 35 31 15 10 10 8 5 5 14 6 9 9 14 12 9 12 26 42 52 44 52 46 45 44 38
63 61 56 50 45 46 49 45 37 32 27 28 29 29 25 24 22 24 25 22 19 14 7 19 39 42 32 23 25 30 27 24 14 6 4 7 8 3 7 3 10 27 17 9 14 32 28 39 40 35 43 44 42 36
61 60 59 59 53 50 51 52 45 34 28 27 29 31 28 24 20 19 12 9 19 18 8 6 9 13 14 21 22 22 23 19 14 9 9 11 10 7 6 7 20 29 47 54 34 50 52 56 58 39 47 39 31 32
65 61 59 57 55 57 55 55 51 39 29 30 30 29 30 27 24 17 9 2 5 9 8 11 8 4 13 13 9 15 20 13 13 8 11 8 6 11 6 22 43 30 38 49 53 44 41 44 37 31 27 26 28 31
65 65 63 60 56 55 59 60 53 42 32 30 32 29 27 28 33 36 37 34 19 12 11 2 8 4 18 11 10 10 7 10 11 8 7 7 5 7 10 38 38 33 26 41 49 27 39 48 41 35 34 33 35 36
64 62 60 62 55 54 57 55 53 43 35 34 32 25 24 26 18 19 22 25 30 22 9 10 6 7 18 10 11 13 10 4 6 6 8 5 5 12 20 35 45 43 31 47 59 56 48 40 30 27 31 35 36 35
62 64 59 59 58 57 60 51 49 43 36 42 26 12 12 12 17 8 9 10 19 19 18 14 13 4 17 12 5 7 6 4 4 8 5 7 9 59 63 58 54 53 45 48 49 49 34 34 28 25 30 32 31 27
59 61 64 59 55 57 60 52 44 45 41 37 24 16 14 14 12 8 8 10 14 10 20 16 38 11 19 6 7 10 3 1 3 6 4 5 7 12 18 17 22 34 34 33 38 35 28 25 24 27 29 30 29 30
61 61 61 61 57 54 57 52 50 62 55 36 17 17 16 14 11 5 6 6 9 11 18 22 21 13 15 13 8 9 6 4 10 1 1 8 9 25 17 18 25 23 21 17 9 9 17 25 21 24 28 28 28 26
59 59 60 59 61 57 58 55 57 66 65 45 17 18 16 12 5 16 18 9 8 14 25 23 9 20 12 11 10 6 7 10 5 2 9 11 14 19 16 18 18 16 16 14 14 17 18 19 21 26 28 27 27 26
61 58 56 54 57 58 56 58 70 79 59 23 21 13 15 11 14 14 13 11 20 13 41 39 14 15 13 7 7 9 7 6 3 8 14 7 35 29 21 16 15 14 17 18 19 18 19 19 21 24 25 24 24 25
63 60 58 60 58 59 58 59 88 102 51 20 20 14 21 25 15 14 30 18 22 44 61 19 7 7 4 7 7 6 6 10 13 11 7 20 28 25 19 15 12 15 18 21 23 23 22 23 24 26 27 26 25 26
60 63 74 66 63 61 65 46 108 92 35 24 22 12 11 6 9 20 33 24 34 61 48 10 5 6 9 7 9 18 16 16 9 8 32 28 34 28 20 16 16 19 22 23 27 28 29 31 30 30 30 29 27 27
51 72 65 60 59 62 62 68 69 40 28 17 19 43 36 11 18 31 36 35 48 56 8 10 14 17 6 4 8 10 12 8 21 31 25 42 38 29 22 20 19 17 18 21 26 34 38 37 39 41 42 36 33 31
72 65 56 55 65 58 61 75 38 25 20 23 14 34 51 27 21 20 41 52 55 31 18 10 18 10 14 13 9 8 36 33 28 25 30 44 42 36 31 26 24 19 16 21 27 31 39 49 51 50 42 39 40 37
67 63 63 57 55 69 41 33 26 19 31 20 40 27 49 45 56 38 38 59 62 43 13 13 11 10 10 12 14 30 36 28 24 34 42 46 46 43 41 37 35 32 26 28 32 37 42 48 51 48 43 44 46 39
62 63 67 67 64 50 19 20 31 17 14 25 26 44 39 26 49 58 49 63 65 19 16 10 15 17 16 38 49 44 34 27 29 33 41 46 55 57 53 56 52 43 35 36 36 40 45 50 54 55 53 52 49 43
56 63 72 63 65 49 26 25 20 19 22 23 30 39 18 29 33 44 46 67 33 21 13 67 68 77 74 66 58 45 45 45 52 55 61 54 47 47 54 58 60 57 53 51 51 53 57 59 58 55 55 54 47 40
62 55 53 57 44 26 19 24 11 25 22 9 35 34 12 11 19 41 44 33 24 66 79 79 72 71 86 93 93 89 92 87 74 72 74 74 74 78 73 68 65 69 66 63 63 64 61 59 57 53 52 53 48 44
58 56 48 31 17 28 14 36 15 22 10 19 28 11 7 9 19 45 17 28 58 86 76 86 78 65 83 95 93 104 107 109 107 106 104 97 99 94 89 83 81 76 76 72 68 65 63 58 57 51 48 51 51 44
57 24 20 25 22 10 17 15 14 15 14 10 12 8 5 9 35 10 10 26 76 61 75 74 68 78 89 95 108 112 114 103 109 105 107 97 97 102 94 95 97 92 82 81 70 62 60 59 55 54 50 54 51 45
19 19 15 9 14 12 11 7 7 7 10 10 12 7 7 21 9 9 9 11 47 65 69 69 84 102 94 106 103 95 81 81 95 97 91 87 87 80 81 80 76 69 64 59 64 64 59 55 53 53 53 54 52 45
17 29 24 17 10 14 15 15 14 10 7 9 13 8 13 7 11 16 8 27 64 67 67 80 98 87 96 99 84 79 84 75 69 68 78 70 68 67 61 61 59 58 54 54 58 59 58 55 54 52 53 52 48 43
16 16 22 24 18 11 9 5 11 8 13 15 11 11 9 11 15 10 28 43 58 66 65 69 80 86 95 94 87 84 79 70 65 64 57 53 48 42 43 48 47 45 40 39 43 47 51 53 52 50 50 51 48 42
12 26 19 23 15 15 10 7 13 18 11 17 19 17 21 20 15 19 21 23 18 34 48 52 62 73 75 72 71 66 56 50 50 46 37 35 34 31 33 35 37 39 38 36 31 31 37 42 44 43 48 48 42 39
12 16 25 9 6 8 13 17 14 23 24 36 18 13 11 20 41 43 32 21 17 24 28 42 50 56 53 52 52 46 41 40 44 45 43 38 30 29 27 29 32 29 27 28 26 28 30 32 35 37 36 35 34 34
16 39 11 12 12 15 16 37 15 27 36 40 36 26 37 58 59 45 46 51 54 55 46 37 35 37 44 50 48 43 41 40 39 39 33 30 27 26 27 24 22 22 26 30 31 31 39 42 45 45 42 41 42 42
33 41 9 8 11 14 27 31 29 20 28 28 45 41 49 39 53 60 67 70 66 63 59 54 49 43 45 50 48 45 46 44 39 37 36 35 33 30 25 17 16 23 31 32 32 39 47 48 44 41 41 42 40 38
23 20 12 9 7 6 13 16 12 17 18 16 15 30 29 19 22 51 64 65 72 79 76 72 69 68 64 56 54 48 37 30 30 31 35 37 37 34 28 22 22 26 31 34 38 40 41 39 38 37 35 36 36 34
12 14 11 11 4 3 15 13 7 7 10 11 19 28 38 27 19 42 55 56 65 72 79 86 84 69 58 52 56 54 54 42 34 32 33 33 32 30 27 25 25 27 32 38 43 43 42 39 34 33 34 34 34 33
Wind_Direction_500mb
285 305 313 320 325 319 309 303 307 310 320 318 320 328 321 307 306 291 277 284 292 270 281 264 257 241 220 209 178 253 348 249 66 172 179 218 206 246 290 252 207 184 166 212 131 196 279 166 111 177 217 250 208 211
280 282 293 304 311 316 316 307 298 301 306 313 312 315 313 299 298 298 272 263 275 278 272 288 278 265 254 250 244 221 239 201 215 97 244 115 239 222 192 273 41 281 200 197 191 222 239 205 239 251 261 272 253 237
282 280 277 282 295 302 307 312 299 290 295 306 310 304 306 296 293 297 284 268 273 286 288 275 278 259 247 243 237 241 238 224 215 212 184 203 242 132 216 236 214 243 190 220 323 258 255 281 275 264 263 266 276 265
274 275 275 273 281 289 296 303 299 278 287 296 304 301 298 291 289 294 292 272 255 265 272 279 289 275 260 238 234 234 242 244 240 233 232 203 211 193 237 268 208 213 159 204 252 275 279 277 290 294 288 279 265 258
273 272 272 270 271 278 288 294 296 276 271 287 297 300 294 288 283 289 285 267 236 227 276 291 287 277 259 245 234 235 238 239 231 222 186 235 235 217 231 313 243 209 221 188 251 255 255 272 292 304 305 303 274 250
265 269 272 272 268 271 277 284 286 275 261 275 288 296 291 283 274 292 292 256 218 223 260 301 278 260 237 228 229 234 235 233 222 223 234 242 241 233 255 248 247 237 236 243 254 274 282 283 282 275 282 288 268 243
264 265 269 271 270 268 270 276 280 266 255 260 278 288 288 282 263 239 245 236 211 214 251 293 287 222 219 218 226 229 226 223 223 238 237 249 231 213 236 256 256 259 266 278 280 290 283 292 269 269 264 261 232 226
266 265 265 265 265 261 266 269 272 266 246 245 267 278 279 278 271 260 249 245 239 246 236 221 270 227 185 179 179 188 205 208 227 269 277 240 262 233 258 248 259 262 269 274 285 263 281 291 282 269 257 232 217 216
267 267 264 262 259 254 258 269 268 261 240 245 251 265 280 266 249 257 244 228 216 223 256 187 184 248 174 169 165 162 179 196 208 234 233 193 208 230 239 258 268 278 271 290 287 288 284 269 269 251 235 223 220 213
268 268 267 264 258 249 248 260 262 251 228 238 229 228 218 208 224 233 238 232 205 208 225 226 201 223 170 166 145 137 184 231 200 220 200 226 254 251 258 261 273 280 286 292 288 289 283 259 256 236 221 220 222 222
267 267 264 259 259 249 244 250 256 226 225 204 201 216 203 181 177 217 244 220 200 234 212 218 194 152 180 134 175 193 186 103 324 261 174 263 267 242 238 247 256 290 293 292 286 271 247 273 263 230 213 209 215 221
266 267 264 255 251 250 244 244 247 221 215 204 185 166 159 198 187 183 213 294 229 244 190 164 178 163 153 159 129 169 145 121 250 328 284 260 251 240 232 260 287 288 288 291 287 218 248 264 239 221 214 216 217 220
269 272 264 259 252 247 241 241 254 228 209 190 194 177 176 183 199 194 195 223 233 205 185 164 138 154 145 170 110 126 135 218 149 173 230 232 243 205 223 262 276 264 266 263 255 258 254 240 227 213 211 208 213 220
262 268 267 262 255 248 244 241 238 220 195 189 173 200 206 190 234 199 188 171 188 187 166 155 131 139 145 140 146 139 190 95 216 232 234 238 229 220 220 242 252 254 249 244 241 250 253 241 223 214 212 216 223 236
260 259 263 256 250 248 244 241 233 212 195 195 186 214 220 220 232 250 212 169 157 161 156 134 85 127 129 130 189 115 130 228 215 230 232 233 191 196 211 225 241 249 248 242 235 232 231 230 226 222 222 228 239 249
264 263 257 255 252 242 237 248 211 200 201 206 209 237 201 176 227 203 200 189 166 161 153 160 155 150 211 166 157 211 164 218 235 214 228 195 193 201 214 232 247 250 247 240 233 230 229 231 234 238 239 244 249 259
257 259 262 254 257 236 232 214 190 201 204 208 219 224 211 226 209 206 196 188 177 165 197 143 179 210 100 207 235 196 212 211 224 241 229 203 207 213 223 232 237 244 250 249 246 240 237 234 235 239 245 254 259 266
253 256 260 259 258 239 212 198 198 213 213 211 197 211 203 213 203 200 198 190 171 199 175 213 152 185 199 185 223 228 229 232 248 269 241 214 213 221 230 236 232 233 249 256 255 252 242 238 239 244 248 251 256 262
255 254 256 260 246 215 200 202 194 203 209 221 223 209 201 214 222 227 207 195 191 190 195 182 230 205 207 208 210 211 209 217 245 253 249 231 229 234 240 241 239 238 254 261 255 258 258 254 253 251 249 249 255 262
258 256 251 253 248 219 200 193 188 209 212 215 206 200 197 211 215 212 205 194 191 180 214 217 225 214 209 232 242 223 228 252 245 239 253 256 247 243 248 252 250 244 258 256 256 257 257 255 251 244 242 245 251 257
258 253 255 239 236 213 210 177 171 205 207 191 191 177 192 207 193 191 187 189 185 197 227 231 238 243 248 251 257 260 255 250 241 250 262 266 256 259 274 267 253 242 252 255 259 261 261 264 264 253 246 247 252 256
251 255 252 244 223 207 215 191 194 174 176 176 157 175 170 184 197 197 181 191 220 223 227 234 237 240 244 246 249 254 260 263 258 260 261 261 260 265 263 262 252 244 257 268 268 264 267 272 268 258 246 244 244 248
252 254 238 206 184 197 203 175 171 182 160 176 163 179 204 210 201 164 189 217 230 231 235 237 239 240 246 254 256 259 260 261 261 263 264 264 265 264 262 261 258 259 267 268 270 263 263 266 263 255 245 238 237 240
240 224 208 200 179 180 166 167 166 160 145 168 169 214 233 189 165 216 238 234 234 235 233 236 237 243 249 252 253 253 256 256 258 257 262 263 261 264 264 263 265 269 267 271 267 260 257 259 257 249 240 234 233 236
213 200 196 188 181 147 172 141 150 177 176 170 166 229 203 161 187 227 239 246 226 229 232 232 236 238 236 245 251 252 253 249 251 254 264 261 264 268 266 267 272 268 262 256 252 250 251 251 247 243 237 230 228 232
201 200 185 188 187 166 180 160 194 189 129 147 201 157 148 179 209 237 227 246 235 233 233 237 235 231 237 242 250 252 255 255 257 258 267 261 262 261 266 267 266 264 261 257 253 249 246 245 243 242 233 224 224 228
177 189 196 197 182 155 140 118 150 140 178 197 167 146 155 210 233 247 243 249 250 250 248 245 242 242 249 253 259 263 264 261 259 263 269 265 261 258 253 255 261 272 272 264 257 250 244 242 240 238 226 219 221 228
243 178 180 171 167 171 146 171 171 189 193 177 146 173 181 201 226 218 249 274 280 250 242 243 245 250 254 259 262 264 263 257 248 246 242 240 243 247 251 257 265 267 264 254 247 234 231 231 233 229 218 216 220 222
224 181 154 156 122 182 205 193 205 217 188 168 175 195 226 230 246 246 251 270 283 259 245 244 249 251 252 255 254 248 240 237 224 215 222 233 242 254 264 266 264 262 255 242 229 216 212 216 216 210 208 212 215 216
191 177 155 172 179 218 226 201 220 230 213 217 220 236 243 246 250 251 250 250 255 256 261 263 260 260 269 258 244 233 226 218 216 222 231 244 262 262 267 272 260 240 227 218 211 206 195 189 191 191 196 199 203 206
171 179 142 169 214 223 225 229 230 233 219 224 223 232 244 254 253 248 247 249 250 250 253 248 248 262 268 250 233 224 219 220 217 221 230 242 252 257 261 260 238 223 216 210 209 205 199 195 194 195 199 200 203 206
169 177 158 179 250 213 212 208 215 220 213 219 232 231 242 245 246 253 246 244 245 245 246 244 243 257 270 257 236 223 226 226 229 237 243 247 252 256 254 245 228 216 209 206 203 198 198 194 189 189 192 199 201 198
150 150 145 138 135 200 189 181 219 279 237 224 230 222 229 233 238 250 253 245 246 251 253 251 250 257 265 250 229 218 216 219 231 240 242 242 242 239 232 221 213 209 204 199 189 189 186 183 189 192 191 192 191 190
Wind_Speed_850mb
30 34 35 38 35 36 38 37 30 20 20 25 27 25 18 16 14 15 17 14 11 11 24 24 22 19 13 10 6 3 6 4 3 3 6 5 5 7 4 8 8 11 9 8 5 7 15 12 7 10 10 5 12 20
41 32 31 35 37 36 37 36 33 26 20 22 25 26 21 17 15 15 17 18 19 18 20 37 36 33 37 32 15 12 5 4 8 6 2 3 6 3 6 8 4 7 10 6 15 11 9 21 24 22 20 18 16 22
54 46 36 33 38 41 41 36 34 30 24 22 24 24 24 19 16 15 16 19 20 20 32 28 23 31 42 37 35 12 8 10 9 9 9 2 10 7 7 11 5 9 14 9 3 9 16 29 41 53 56 49 36 29
60 57 48 40 39 46 45 40 35 30 27 26 26 26 24 23 20 18 17 15 15 9 8 10 14 21 21 30 36 35 31 15 10 10 8 5 5 14 6 9 9 14 12 9 12 26 42 52 44 52 46 45 44 38
63 61 56 50 45 46 49 45 37 32 27 28 29 29 25 24 22 24 25 22 19 14 7 19 39 42 32 23 25 30 27 24 14 6 4 7 8 3 7 3 10 27 17 9 14 32 28 39 40 35 43 44 42 36
61 60 59 59 53 50 51 52 45 34 28 27 29 31 28 24 20 19 12 9 19 18 8 6 9 13 14 21 22 22 23 19 14 9 9 11 10 7 6 7 20 29 47 54 34 50 52 56 58 39 47 39 31 32
65 61 59 57 55 57 55 55 51 39 29 30 30 29 30 27 24 17 9 2 5 9 8 11 8 4 13 13 9 15 20 13 13 8 11 8 6 11 6 22 43 30 38 49 53 44 41 44 37 31 27 26 28 31
65 65 63 60 56 55 59 60 53 42 32 30 32 29 27 28 33 36 37 34 19 12 11 2 8 4 18 11 10 10 7 10 11 8 7 7 5 7 10 38 38 33 26 41 49 27 39 48 41 35 34 33 35 36
64 62 60 62 55 54 57 55 53 43 35 34 32 25 24 26 18 19 22 25 30 22 9 10 6 7 18 10 11 13 10 4 6 6 8 5 5 12 20 35 45 43 31 47 59 56 48 40 30 27 31 35 36 35
62 64 59 59 58 57 60 51 49 43 36 42 26 12 12 12 17 8 9 10 19 19 18 14 13 4 17 12 5 7 6 4 4 8 5 7 9 59 63 58 54 53 45 48 49 49 34 34 28 25 30 32 31 27
59 61 64 59 55 57 60 52 44 45 41 37 24 16 14 14 12 8 8 10 14 10 20 16 38 11 19 6 7 10 3 1 3 6 4 5 7 12 18 17 22 34 34 33 38 35 28 25 24 27 29 30 29 30
61 61 61 61 57 54 57 52 50 62 55 36 17 17 16 14 11 5 6 6 9 11 18 22 21 13 15 13 8 9 6 4 10 1 1 8 9 25 17 18 25 23 21 17 9 9 17 25 21 24 28 28 28 26
59 59 60 59 61 57 58 55 57 66 65 45 17 18 16 12 5 16 18 9 8 14 25 23 9 20 12 11 10 6 7 10 5 2 9 11 14 19 16 18 18 16 16 14 14 17 18 19 21 26 28 27 27 26
61 58 56 54 57 58 56 58 70 79 59 23 21 13 15 11 14 14 13 11 20 13 41 39 14 15 13 7 7 9 7 6 3 8 14 7 35 29 21 16 15 14 17 18 19 18 19 19 21 24 25 24 24 25
63 60 58 60 58 59 58 59 88 102 51 20 20 14 21 25 15 14 30 18 22 44 61 19 7 7 4 7 7 6 6 10 13 11 7 20 28 25 19 15 12 15 18 21 23 23 22 23 24 26 27 26 25 26
60 63 74 66 63 61 65 46 108 92 35 24 22 12 11 6 9 20 33 24 34 61 48 10 5 6 9 7 9 18 16 16 9 8 32 28 34 28 20 16 16 19 22 23 27 28 29 31 30 30 30 29 27 27
51 72 65 60 59 62 62 68 69 40 28 17 19 43 36 11 18 31 36 35 48 56 8 10 14 17 6 4 8 10 12 8 21 31 25 42 38 29 22 20 19 17 18 21 26 34 38 37 39 41 42 36 33 31
72 65 56 55 65 58 61 75 38 25 20 23 14 34 51 27 21 20 41 52 55 31 18 10 18 10 14 13 9 8 36 33 28 25 30 44 42 36 31 26 24 19 16 21 27 31 39 49 51 50 42 39 40 37
67 63 63 57 55 69 41 33 26 19 31 20 40 27 49 45 56 38 38 59 62 43 13 13 11 10 10 12 14 30 36 28 24 34 42 46 46 43 41 37 35 32 26 28 32 37 42 48 51 48 43 44 46 39
62 63 67 67 64 50 19 20 31 17 14 25 26 44 39 26 49 58 49 63 65 19 16 10 15 17 16 38 49 44 34 27 29 33 41 46 55 57 53 56 52 43 35 36 36 40 45 50 54 55 53 52 49 43
56 63 72 63 65 49 26 25 20 19 22 23 30 39 18 29 33 44 46 67 33 21 13 67 68 77 74 66 58 45 45 45 52 55 61 54 47 47 54 58 60 57 53 51 51 53 57 59 58 55 55 54 47 40
62 55 53 57 44 26 19 24 11 25 22 9 35 34 12 11 19 41 44 33 24 66 79 79 72 71 86 93 93 89 92 87 74 72 74 74 74 78 73 68 65 69 66 63 63 64 61 59 57 53 52 53 48 44
58 56 48 31 17 28 14 36 15 22 10 19 28 11 7 9 19 45 17 28 58 86 76 86 78 65 83 95 93 104 107 109 107 106 104 97 99 94 89 83 81 76 76 72 68 65 63 58 57 51 48 51 51 44
57 24 20 25 22 10 17 15 14 15 14 10 12 8 5 9 35 10 10 26 76 61 75 74 68 78 89 95 108 112 114 103 109 105 107 97 97 102 94 95 97 92 82 81 70 62 60 59 55 54 50 54 51 45
19 19 15 9 14 12 11 7 7 7 10 10 12 7 7 21 9 9 9 11 47 65 69 69 84 102 94 106 103 95 81 81 95 97 91 87 87 80 81 80 76 69 64 59 64 64 59 55 53 53 53 54 52 45
17 29 24 17 10 14 15 15 14 10 7 9 13 8 13 7 11 16 8 27 64 67 67 80 98 87 96 99 84 79 84 75 69 68 78 70 68 67 61 61 59 58 54 54 58 59 58 55 54 52 53 52 48 43
16 16 22 24 18 11 9 5 11 8 13 15 11 11 9 11 15 10 28 43 58 66 65 69 80 86 95 94 87 84 79 70 65 64 57 53 48 42 43 48 47 45 40 39 43 47 51 53 52 50 50 51 48 42
12 26 19 23 15 15 10 7 13 18 11 17 19 17 21 20 15 19 21 23 18 34 48 52 62 73 75 72 71 66 56 50 50 46 37 35 34 31 33 35 37 39 38 36 31 31 37 42 44 43 48 48 42 39
12 16 25 9 6 8 13 17 14 23 24 36 18 13 11 20 41 43 32 21 17 24 28 42 50 56 53 52 52 46 41 40 44 45 43 38 30 29 27 29 32 29 27 28 26 28 30 32 35 37 36 35 34 34
16 39 11 12 12 15 16 37 15 27 36 40 36 26 37 58 59 45 46 51 54 55 46 37 35 37 44 50 48 43 41 40 39 39 33 30 27 26 27 24 22 22 26 30 31 31 39 42 45 45 42 41 42 42
33 41 9 8 11 14 27 31 29 20 28 28 45 41 49 39 53 60 67 70 66 63 59 54 49 43 45 50 48 45 46 44 39 37 36 35 33 30 25 17 16 23 31 32 32 39 47 48 44 41 41 42 40 38
23 20 12 9 7 6 13 16 12 17 18 16 15 30 29 19 22 51 64 65 72 79 76 72 69 68 64 56 54 48 37 30 30 31 35 37 37 34 28 22 22 26 31 34 38 40 41 39 38 37 35 36 36 34
12 14 11 11 4 3 15 13 7 7 10 11 19 28 38 27 19 42 55 56 65 72 79 86 84 69 58 52 56 54 54 42 34 32 33 33 32 30 27 25 25 27 32 38 43 43 42 39 34 33 34 34 34 33
Wind_Direction_850mb
285 305 313 320 325 319 309 303 307 310 320 318 320 328 321 307 306 291 277 284 292 270 281 264 257 241 220 209 178 253 348 249 66 172 179 218 206 246 290 252 207 184 166 212 131 196 279 166 111 177 217 250 208 211
280 282 293 304 311 316 316 307 298 301 306 313 312 315 313 299 298 298 272 263 275 278 272 288 278 265 254 250 244 221 239 201 215 97 244 115 239 222 192 273 41 281 200 197 191 222 239 205 239 251 261 272 253 237
282 280 277 282 295 302 307 312 299 290 295 306 310 304 306 296 293 297 284 268 273 286 288 275 278 259 247 243 237 241 238 224 215 212 184 203 242 132 216 236 214 243 190 220 323 258 255 281 275 264 263 266 276 265
274 275 275 273 281 289 296 303 299 278 287 296 304 301 298 291 289 294 292 272 255 265 272 279 289 275 260 238 234 234 242 244 240 233 232 203 211 193 237 268 208 213 159 204 252 275 279 277 290 294 288 279 265 258
273 272 272 270 271 278 288 294 296 276 271 287 297 300 294 288 283 289 285 267 236 227 276 291 287 277 259 245 234 235 238 239 231 222 186 235 235 217 231 313 243 209 221 188 251 255 255 272 292 304 305 303 274 250
265 269 272 272 268 271 277 284 286 275 261 275 288 296 291 283 274 292 292 256 218 223 260 301 278 260 237 228 229 234 235 233 222 223 234 242 241 233 255 248 247 237 236 243 254 274 282 283 282 275 282 288 268 243
264 265 269 271 270 268 270 276 280 266 255 260 278 288 288 282 263 239 245 236 211 214 251 293 287 222 219 218 226 229 226 223 223 238 237 249 231 213 236 256 256 259 266 278 280 290 283 292 269 269 264 261 232 226
266 265 265 265 265 261 266 269 272 266 246 245 267 278 279 278 271 260 249 245 239 246 236 221 270 227 185 179 179 188 205 208 227 269 277 240 262 233 258 248 259 262 269 274 285 263 281 291 282 269 257 232 217 216
267 267 264 262 259 254 258 269 268 261 240 245 251 265 280 266 249 257 244 228 216 223 256 187 184 248 174 169 165 162 179 196 208 234 233 193 208 230 239 258 268 278 271 290 287 288 284 269 269 251 235 223 220 213
268 268 267 264 258 249 248 260 262 251 228 238 229 228 218 208 224 233 238 232 205 208 225 226 201 223 170 166 145 137 184 231 200 220 200 226 254 251 258 261 273 280 286 292 288 289 283 259 256 236 221 220 222 222
267 267 264 259 259 249 244 250 256 226 225 204 201 216 203 181 177 217 244 220 200 234 212 218 194 152 180 134 175 193 186 103 324 261 174 263 267 242 238 247 256 290 293 292 286 271 247 273 263 230 213 209 215 221
266 267 264 255 251 250 244 244 247 221 215 204 185 166 159 198 187 183 213 294 229 244 190 164 178 163 153 159 129 169 145 121 250 328 284 260 251 240 232 260 287 288 288 291 287 218 248 264 239 221 214 216 217 220
269 272 264 259 252 247 241 241 254 228 209 190 194 177 176 183 199 194 195 223 233 205 185 164 138 154 145 170 110 126 135 218 149 173 230 232 243 205 223 262 276 264 266 263 255 258 254 240 227 213 211 208 213 220
262 268 267 262 255 248 244 241 238 220 195 189 173 200 206 190 234 199 188 171 188 187 166 155 131 139 145 140 146 139 190 95 216 232 234 238 229 220 220 242 252 254 249 244 241 250 253 241 223 214 212 216 223 236
260 259 263 256 250 248 244 241 233 212 195 195 186 214 220 220 232 250 212 169 157 161 156 134 85 127 129 130 189 115 130 228 215 230 232 233 191 196 211 225 241 249 248 242 235 232 231 230 226 222 222 228 239 249
264 263 257 255 252 242 237 248 211 200 201 206 209 237 201 176 227 203 200 189 166 161 153 160 155 150 211 166 157 211 164 218 235 214 228 195 193 201 214 232 247 250 247 240 233 230 229 231 234 238 239 244 249 259
257 259 262 254 257 236 232 214 190 201 204 208 219 224 211 226 209 206 196 188 177 165 197 143 179 210 100 207 235 196 212 211 224 241 229 203 207 213 223 232 237 244 250 249 246 240 237 234 235 239 245 254 259 266
253 256 260 259 258 239 212 198 198 213 213 211 197 211 203 213 203 200 198 190 171 199 175 213 152 185 199 185 223 228 229 232 248 269 241 214 213 221 230 236 232 233 249 256 255 252 242 238 239 244 248 251 256 262
255 254 256 260 246 215 200 202 194 203 209 221 223 209 201 214 222 227 207 195 191 190 195 182 230 205 207 208 210 211 209 217 245 253 249 231 229 234 240 241 239 238 254 261 255 258 258 254 253 251 249 249 255 262
258 256 251 253 248 219 200 193 188 209 212 215 206 200 197 211 215 212 205 194 191 180 214 217 225 214 209 232 242 223 228 252 245 239 253 256 247 243 248 252 250 244 258 256 256 257 257 255 251 244 242 245 251 257
258 253 255 239 236 213 210 177 171 205 207 191 191 177 192 207 193 191 187 189 185 197 227 231 238 243 248 251 257 260 255 250 241 250 262 266 256 259 274 267 253 242 252 255 259 261 261 264 264 253 246 247 252 256
251 255 252 244 223 207 215 191 194 174 176 176 157 175 170 184 197 197 181 191 220 223 227 234 237 240 244 246 249 254 260 263 258 260 261 261 260 265 263 262 252 244 257 268 268 264 267 272 268 258 246 244 244 248
252 254 238 206 184 197 203 175 171 182 160 176 163 179 204 210 201 164 189 217 230 231 235 237 239 240 246 254 256 259 260 261 261 263 264 264 265 264 262 261 258 259 267 268 270 263 263 266 263 255 245 238 237 240
240 224 208 200 179 180 166 167 166 160 145 168 169 214 233 189 165 216 238 234 234 235 233 236 237 243 249 252 253 253 256 256 258 257 262 263 261 264 264 263 265 269 267 271 267 260 257 259 257 249 240 234 233 236
213 200 196 188 181 147 172 141 150 177 176 170 166 229 203 161 187 227 239 246 226 229 232 232 236 238 236 245 251 252 253 249 251 254 264 261 264 268 266 267 272 268 262 256 252 250 251 251 247 243 237 230 228 232
201 200 185 188 187 166 180 160 194 189 129 147 201 157 148 179 209 237 227 246 235 233 233 237 235 231 237 242 250 252 255 255 257 258 267 261 262 261 266 267 266 264 261 257 253 249 246 245 243 242 233 224 224 228
177 189 196 197 182 155 140 118 150 140 178 197 167 146 155 210 233 247 243 249 250 250 248 245 242 242 249 253 259 263 264 261 259 263 269 265 261 258 253 255 261 272 272 264 257 250 244 242 240 238 226 219 221 228
243 178 180 171 167 171 146 171 171 189 193 177 146 173 181 201 226 218 249 274 280 250 242 243 245 250 254 259 262 264 263 257 248 246 242 240 243 247 251 257 265 267 264 254 247 234 231 231 233 229 218 216 220 222
224 181 154 156 122 182 205 193 205 217 188 168 175 195 226 230 246 246 251 270 283 259 245 244 249 251 252 255 254 248 240 237 224 215 222 233 242 254 264 266 264 262 255 242 229 216 212 216 216 210 208 212 215 216
191 177 155 172 179 218 226 201 220 230 213 217 220 236 243 246 250 251 250 250 255 256 261 263 260 260 269 258 244 233 226 218 216 222 231 244 262 262 267 272 260 240 227 218 211 206 195 189 191 191 196 199 203 206
171 179 142 169 214 223 225 229 230 233 219 224 223 232 244 254 253 248 247 249 250 250 253 248 248 262 268 250 233 224 219 220 217 221 230 242 252 257 261 260 238 223 216 210 209 205 199 195 194 195 199 200 203 206
169 177 158 179 250 213 212 208 215 220 213 219 232 231 242 245 246 253 246 244 245 245 246 244 243 257 270 257 236 223 226 226 229 237 243 247 252 256 254 245 228 216 209 206 203 198 198 194 189 189 192 199 201 198
150 150 145 138 135 200 189 181 219 279 237 224 230 222 229 233 238 250 253 245 246 251 253 251 250 257 265 250 229 218 216 219 231 240 242 242 242 239 232 221 213 209 204 199 189 189 186 183 189 192 191 192 191 190